Houston, TX

11:44 PM CST on December 10, 2019 (GMT -0600)
Houston

Weather History for KTME - November, 2019

Change the Weather History Date:

Thursday, November 14, 2019

  Actual Average (KSGR) Record (KSGR)
Temperature  
Mean Temperature 44 °F -  
Max Temperature 46 °F 72 °F 88 °F (1978)
Min Temperature 39 °F 51 °F 30 °F (2018)
Degree Days  
Heating Degree Days 22    
Moisture  
Dew Point 42 °F    
Average Humidity 93    
Maximum Humidity 100    
Minimum Humidity 66    
Precipitation  
Precipitation 0.00 in - - ()
Sea Level Pressure  
Sea Level Pressure 30.27 in    
Wind  
Wind Speed 8 mph ()    
Max Wind Speed 14 mph    
Max Gust Speed -    
Visibility 6.3 miles    
Events Rain    
Averages and records for this station are not official NWS values.
T = Trace of Precipitation, MM = Missing Value Source: Averaged Metar Reports

Daily Weather History Graph

Daily Weather History Graph

Search for Another Location

Airport or City:

Astronomy

Nov. 14, 2019 Rise Set
Actual Time 6:47 AM CST 5:28 PM CST
Civil Twilight 6:22 AM CST 5:53 PM CST
Nautical Twilight 5:53 AM CST 6:22 PM CST
Astronomical Twilight 5:24 AM CST 6:50 PM CST
Moon 7:20 PM CST (11/14) 8:39 AM CST (11/14)
Length of Visible Light 11h 31m
Length of Day
10h 41m
Waning Gibbous, 95% of the Moon is Illuminated
Nov 14
Waning Gibbous
Nov 19
Last Quarter
Nov 26
New
Dec 4
First Quarter
Dec 11
Full

Hourly Weather History & Observations

Time (CST) Temp. Windchill Dew Point Humidity Pressure Visibility Wind Dir Wind Speed Gust Speed Precip Events Conditions
12:15 AM 46.4 °F 44.3 °F 37.4 °F 71% 30.18 in 10.0 mi ENE 4.6 mph - N/A   Overcast
12:35 AM 46.4 °F 42.9 °F 37.4 °F 71% 30.18 in 10.0 mi East 6.9 mph - N/A   Overcast
12:55 AM 46.4 °F 42.9 °F 37.4 °F 71% 30.18 in 10.0 mi East 6.9 mph - N/A   Overcast
1:15 AM 46.4 °F 43.5 °F 37.4 °F 71% 30.18 in 10.0 mi NE 5.8 mph - N/A   Overcast
1:35 AM 46.4 °F 42.4 °F 39.2 °F 76% 30.18 in 10.0 mi ENE 8.1 mph - N/A   Overcast
1:55 AM 46.4 °F 42.9 °F 39.2 °F 76% 30.18 in 10.0 mi ENE 6.9 mph - N/A   Overcast
2:15 AM 46.4 °F 43.5 °F 39.2 °F 76% 30.18 in 10.0 mi NE 5.8 mph - N/A   Overcast
2:35 AM 46.4 °F 43.5 °F 39.2 °F 76% 30.18 in 10.0 mi NE 5.8 mph - N/A   Overcast
2:55 AM 46.4 °F 42.9 °F 37.4 °F 71% 30.17 in 10.0 mi NE 6.9 mph - N/A   Overcast
3:15 AM 46.4 °F 42.9 °F 35.6 °F 66% 30.17 in 10.0 mi NE 6.9 mph - N/A   Overcast
3:35 AM 46.4 °F 42.4 °F 35.6 °F 66% 30.17 in 10.0 mi NE 8.1 mph - N/A   Overcast
3:55 AM 46.4 °F 42.9 °F 35.6 °F 66% 30.18 in 10.0 mi NE 6.9 mph - N/A   Overcast
4:15 AM 44.6 °F 40.7 °F 37.4 °F 76% 30.18 in 10.0 mi NE 6.9 mph - N/A   Light Drizzle
4:35 AM 44.6 °F 40.7 °F 39.2 °F 81% 30.18 in 10.0 mi NE 6.9 mph - N/A   Overcast
4:55 AM 44.6 °F 40.7 °F 39.2 °F 81% 30.17 in 10.0 mi NE 6.9 mph - N/A   Overcast
5:15 AM 44.6 °F 40.7 °F 41.0 °F 87% 30.18 in 8.0 mi NE 6.9 mph - N/A   Overcast
5:35 AM 42.8 °F 38.6 °F 41.0 °F 93% 30.20 in 4.0 mi NE 6.9 mph - N/A   Light Drizzle
5:55 AM 42.8 °F 37.5 °F 41.0 °F 93% 30.20 in 3.0 mi NE 9.2 mph - N/A Rain Light Rain
6:15 AM 42.8 °F 38.0 °F 41.0 °F 93% 30.21 in 4.0 mi NE 8.1 mph - N/A Rain Light Rain
6:35 AM 41.0 °F 35.8 °F 41.0 °F 100% 30.22 in 3.0 mi NE 8.1 mph - N/A Rain Light Rain
6:55 AM 41.0 °F 35.2 °F 41.0 °F 100% 30.22 in 3.0 mi NE 9.2 mph - N/A Rain Light Rain
7:15 AM 41.0 °F 35.2 °F 41.0 °F 100% 30.23 in 4.0 mi NE 9.2 mph - N/A Rain Light Rain
7:35 AM 41.0 °F 35.2 °F 41.0 °F 100% 30.24 in 3.0 mi NE 9.2 mph - N/A Rain Light Rain
7:55 AM 41.0 °F 35.8 °F 41.0 °F 100% 30.24 in 3.0 mi NE 8.1 mph - N/A Rain Light Rain
8:15 AM 41.0 °F 34.3 °F 41.0 °F 100% 30.25 in 4.0 mi NE 11.5 mph - N/A   Light Drizzle
8:35 AM 41.0 °F 34.7 °F 41.0 °F 100% 30.25 in 5.0 mi NNE 10.4 mph - N/A   Light Drizzle
8:55 AM 41.0 °F 35.2 °F 39.2 °F 93% 30.26 in 3.0 mi NE 9.2 mph - N/A   Light Drizzle
9:15 AM 41.0 °F 34.3 °F 41.0 °F 100% 30.27 in 4.0 mi NNE 11.5 mph - N/A   Light Drizzle
9:35 AM 41.0 °F 34.7 °F 41.0 °F 100% 30.28 in 3.0 mi NE 10.4 mph - N/A   Light Drizzle
9:55 AM 42.8 °F 37.0 °F 41.0 °F 93% 30.29 in 1.8 mi NNE 10.4 mph - N/A Rain Light Rain
10:15 AM 41.0 °F 33.9 °F 41.0 °F 100% 30.29 in 1.5 mi NE 12.7 mph - N/A   Overcast
10:35 AM 41.0 °F 33.9 °F 41.0 °F 100% 30.29 in 1.2 mi NNE 12.7 mph - N/A   Overcast
10:55 AM 41.0 °F 33.9 °F 41.0 °F 100% 30.29 in 1.5 mi NE 12.7 mph - N/A   Light Drizzle
11:15 AM 42.8 °F 35.8 °F 42.8 °F 100% 30.29 in 1.5 mi NE 13.8 mph - N/A Rain Light Rain
11:35 AM 42.8 °F 36.6 °F 42.8 °F 100% 30.28 in 1.0 mi NE 11.5 mph - N/A Rain Light Rain
11:55 AM 42.8 °F 36.6 °F 42.8 °F 100% 30.28 in 1.2 mi NE 11.5 mph - N/A   Light Drizzle
12:15 PM 42.8 °F 37.5 °F 42.8 °F 100% 30.28 in 1.5 mi NNE 9.2 mph - N/A   Light Drizzle
12:35 PM 44.6 °F 40.2 °F 44.6 °F 100% 30.27 in 1.0 mi NE 8.1 mph - N/A   Light Drizzle
12:55 PM 44.6 °F 40.2 °F 44.6 °F 100% 30.27 in 1.0 mi NE 8.1 mph - N/A   Light Drizzle
1:15 PM 46.4 °F 42.4 °F 46.4 °F 100% 30.26 in 1.5 mi NE 8.1 mph - N/A   Light Drizzle
1:35 PM 46.4 °F 41.5 °F 46.4 °F 100% 30.25 in 1.5 mi NNE 10.4 mph - N/A   Light Drizzle
1:55 PM 46.4 °F 41.5 °F 46.4 °F 100% 30.25 in 2.0 mi NNE 10.4 mph - N/A   Light Drizzle
2:15 PM 46.4 °F 41.1 °F 46.4 °F 100% 30.26 in 2.5 mi NNE 11.5 mph - N/A   Light Drizzle
2:35 PM 46.4 °F 41.1 °F 46.4 °F 100% 30.27 in 2.0 mi North 11.5 mph - N/A   Overcast
2:55 PM 46.4 °F 41.5 °F 46.4 °F 100% 30.27 in 1.0 mi NNE 10.4 mph - N/A Rain Light Rain
3:15 PM 46.4 °F 41.1 °F 46.4 °F 100% 30.27 in 1.5 mi NNE 11.5 mph - N/A   Light Drizzle
3:35 PM 46.4 °F 40.4 °F 46.4 °F 100% 30.28 in 2.0 mi NNE 13.8 mph - N/A   Light Drizzle
3:55 PM 46.4 °F 41.5 °F 46.4 °F 100% 30.28 in 1.8 mi North 10.4 mph - N/A   Light Drizzle
4:15 PM 46.4 °F 40.4 °F 46.4 °F 100% 30.28 in 2.0 mi North 13.8 mph - N/A   Light Drizzle
4:35 PM 46.4 °F 40.7 °F 46.4 °F 100% 30.29 in 5.0 mi North 12.7 mph - N/A   Overcast
4:55 PM 46.4 °F 41.9 °F 46.4 °F 100% 30.30 in 5.0 mi North 9.2 mph - N/A   Overcast
5:15 PM 44.6 °F 40.7 °F 44.6 °F 100% 30.29 in 9.0 mi North 6.9 mph - N/A   Overcast
5:35 PM 44.6 °F 39.2 °F 44.6 °F 100% 30.30 in 10.0 mi North 10.4 mph - N/A   Overcast
5:55 PM 44.6 °F 39.2 °F 44.6 °F 100% 30.30 in 10.0 mi North 10.4 mph - N/A   Overcast
6:15 PM 44.6 °F 39.7 °F 44.6 °F 100% 30.30 in 10.0 mi North 9.2 mph - N/A   Overcast
6:35 PM 44.6 °F 38.4 °F 44.6 °F 100% 30.31 in 10.0 mi North 12.7 mph - N/A   Overcast
6:55 PM 44.6 °F 39.2 °F 44.6 °F 100% 30.32 in 10.0 mi North 10.4 mph - N/A   Overcast
7:15 PM 44.6 °F 39.2 °F 42.8 °F 93% 30.34 in 10.0 mi NNE 10.4 mph - N/A   Overcast
7:35 PM 44.6 °F 40.2 °F 42.8 °F 93% 30.35 in 10.0 mi NNE 8.1 mph - N/A   Overcast
7:55 PM 44.6 °F 40.2 °F 42.8 °F 93% 30.36 in 10.0 mi North 8.1 mph - N/A   Overcast
8:15 PM 44.6 °F 39.7 °F 42.8 °F 93% 30.36 in 10.0 mi NNE 9.2 mph - N/A   Overcast
8:35 PM 44.6 °F 40.2 °F 42.8 °F 93% 30.37 in 10.0 mi North 8.1 mph - N/A   Overcast
8:55 PM 44.6 °F 39.7 °F 44.6 °F 100% 30.37 in 10.0 mi NNE 9.2 mph - N/A   Overcast
9:15 PM 44.6 °F 40.7 °F 44.6 °F 100% 30.38 in 10.0 mi North 6.9 mph - N/A   Overcast
9:35 PM 44.6 °F 38.8 °F 42.8 °F 93% 30.38 in 10.0 mi NNE 11.5 mph - N/A   Overcast
9:55 PM 44.6 °F 38.8 °F 42.8 °F 93% 30.38 in 10.0 mi NNE 11.5 mph - N/A   Overcast
10:15 PM 44.6 °F 39.7 °F 42.8 °F 93% 30.38 in 10.0 mi NNE 9.2 mph - N/A   Overcast
10:35 PM 42.8 °F 38.6 °F 42.8 °F 100% 30.37 in 10.0 mi NNE 6.9 mph - N/A   Mostly Cloudy
10:55 PM 41.0 °F 37.1 °F 41.0 °F 100% 30.38 in 10.0 mi North 5.8 mph - N/A   Mostly Cloudy
11:15 PM 41.0 °F 37.1 °F 41.0 °F 100% 30.38 in 10.0 mi North 5.8 mph - N/A   Partly Cloudy
11:35 PM 41.0 °F 38.0 °F 41.0 °F 100% 30.37 in 9.0 mi North 4.6 mph - N/A   Clear
11:55 PM 39.2 °F 35.9 °F 39.2 °F 100% 30.37 in 8.0 mi North 4.6 mph - N/A   Clear